Weather History for Pensacola NAS, FL

Change the Weather History Date:

Monday, February 18, 2013

  Actual Average Record
Temperature  
Mean Temperature 54 °F -  
Max Temperature 62 °F 63 °F 75 °F (2000)
Min Temperature 46 °F 45 °F 30 °F (2007)
Degree Days  
Heating Degree Days 11    
Growing Degree Days 4 (Base 50)    
Moisture  
Dew Point 43 °F    
Average Humidity 60    
Maximum Humidity 75    
Minimum Humidity 44    
Precipitation  
Precipitation 0.00 in - - ()
Sea Level Pressure  
Sea Level Pressure 30.23 in    
Wind  
Wind Speed 13 mph (SSE)    
Max Wind Speed 24 mph    
Max Gust Speed 30 mph    
Visibility 10 miles    
Events      
Averages and records for this station are not official NWS values.
T = Trace of Precipitation, MM = Missing Value Source: NWS Daily Summary

Daily Weather History Graph

Daily Weather History Graph

Search for Another Location

Airport:

Trip Planner

Search our weather history database for the weather conditions in past years. The results will help you decide how hot, cold, wet, or windy it might be!

Date:

Astronomy

Feb. 18, 2013 Rise Set
Actual Time 6:26 AM CST 5:40 PM CST
Civil Twilight 6:02 AM CST 6:04 PM CST
Nautical Twilight 5:34 AM CST 6:32 PM CST
Astronomical Twilight 5:06 AM CST 7:00 PM CST
Moon 11:37 AM CST (2/18) 12:54 AM CST (2/18)
Length of Visible Light 12h 02m
Length of Day
11h 13m
First Quarter, 58% of the Moon is Illuminated
Feb 18
First Quarter
Feb 25
Full
Mar 4
Last Quarter
Mar 11
New
Mar 19
First Quarter

Hourly Weather History & Observations

Time (CST) Temp. Dew Point Humidity Pressure Visibility Wind Dir Wind Speed Gust Speed Precip Events Conditions
12:56 AM 46.9 °F 36.0 °F 66% 30.29 in 10.0 mi South 8.1 mph - N/A   Clear
1:56 AM 48.0 °F 37.0 °F 66% 30.28 in 10.0 mi South 8.1 mph - N/A   Clear
2:56 AM 50.0 °F 37.0 °F 61% 30.27 in 10.0 mi South 8.1 mph - N/A   Clear
3:56 AM 48.9 °F 37.9 °F 66% 30.26 in 10.0 mi SSE 8.1 mph - N/A   Clear
4:56 AM 51.1 °F 37.9 °F 61% 30.27 in 10.0 mi SSE 9.2 mph - N/A   Clear
5:56 AM 53.1 °F 39.0 °F 59% 30.28 in 10.0 mi South 11.5 mph - N/A   Clear
6:56 AM 54.0 °F 39.9 °F 59% 30.28 in 10.0 mi SSE 13.8 mph - N/A   Clear
7:56 AM 57.9 °F 41.0 °F 53% 30.30 in 10.0 mi SSE 11.5 mph - N/A   Clear
8:56 AM 60.1 °F 41.0 °F 49% 30.31 in 10.0 mi SSE 15.0 mph - N/A   Clear
9:56 AM 62.1 °F 39.9 °F 44% 30.31 in 10.0 mi SSE 15.0 mph 23.0 mph N/A   Clear
10:56 AM 62.1 °F 42.1 °F 48% 30.32 in 10.0 mi SE 16.1 mph - N/A   Clear
11:56 AM 62.1 °F 43.0 °F 50% 30.30 in 10.0 mi SSE 13.8 mph - N/A   Partly Cloudy
12:56 PM 60.1 °F 42.1 °F 51% 30.28 in 10.0 mi SSE 15.0 mph 24.2 mph N/A   Mostly Cloudy
1:56 PM 62.1 °F 43.0 °F 50% 30.24 in 10.0 mi SE 17.3 mph 23.0 mph N/A   Mostly Cloudy
2:56 PM 62.1 °F 44.1 °F 52% 30.21 in 10.0 mi SE 16.1 mph 27.6 mph N/A   Clear
3:56 PM 61.0 °F 44.1 °F 54% 30.18 in 10.0 mi SE 18.4 mph 26.5 mph N/A   Scattered Clouds
4:56 PM 59.0 °F 45.0 °F 60% 30.17 in 10.0 mi SE 17.3 mph 23.0 mph N/A   Clear
5:56 PM 59.0 °F 46.0 °F 62% 30.16 in 10.0 mi SE 17.3 mph 24.2 mph N/A   Mostly Cloudy
6:56 PM 60.1 °F 48.0 °F 64% 30.16 in 10.0 mi SSE 19.6 mph 26.5 mph N/A   Overcast
7:56 PM 59.0 °F 50.0 °F 72% 30.15 in 10.0 mi SE 20.7 mph 25.3 mph 0.00 in   Overcast
8:56 PM 61.0 °F 51.1 °F 70% 30.15 in 10.0 mi SSE 19.6 mph 26.5 mph N/A   Overcast
9:56 PM 61.0 °F 51.1 °F 70% 30.12 in 10.0 mi SSE 21.9 mph - N/A   Overcast
10:56 PM 61.0 °F 52.0 °F 72% 30.09 in 10.0 mi SSE 24.2 mph 29.9 mph N/A   Partly Cloudy
11:56 PM 62.1 °F 54.0 °F 75% 30.06 in 10.0 mi SSE 21.9 mph - N/A   Mostly Cloudy